Fort Lewis, WA
on Tuesday, February 12, 2013

Tuesday
Previous Day Next Day
Daily Summary
 ActualAverage (KOLM)Record (KOLM)
Temperature
Mean Temperature °F 41°F  
Max Temperature 50°F 49°F 62°F (1963)
Min Temperature 42°F 33°F 16°F (1949)
Degree Days
Heating Degree Days 19 24  
Month to date heating degree days 289  
Since 1 July heating degree days 3340  
Cooling Degree Days 0 0  
Month to date cooling degree days 0  
Year to date cooling degree days 0  
Moisture
Dew Point 44°F   
Average Humidity 92    
Maximum Humidity 100    
Minimum Humidity 76    
Precipitation
Precipitation 0.00 in 0.19 in 1.59 in (1954)
Month to date precipitation 2.42  
Year to date precipitation 10.26  
Wind
Wind Speed 5 mph   
Max Wind Speed 13 mph   
Max Gust Speed 17 mph   
Visibility 10 miles   
Events     

Key: T is trace of precipitation, MM is missing value
Source: NWS Daily Summary
Time(PST)TemperatureDew PointHumidity Pressure Visibility Wind DirectionWind SpeedGust SpeedPrecipitationEvents Conditions
12:28 AM 42.8°F 42.8°F 100% 30.35 in 10.0 miles NW 4.6 mph - N/A   Overcast
12:38 AM 42.8°F 42.8°F 100% 30.35 in 10.0 miles NW 5.8 mph - N/A   Overcast
12:58 AM 43.5°F 43.3°F 99% 30.37 in 10.0 miles NW 4.6 mph - N/A   Overcast
1:43 AM 44.6°F 42.8°F 93% 30.35 in 10.0 miles NW 3.5 mph - N/A   Overcast
1:52 AM 44.6°F 42.8°F 93% 30.35 in 10.0 miles NW 4.6 mph - N/A   Overcast
1:58 AM 43.9°F 43.7°F 99% 30.37 in 10.0 miles NW 4.6 mph - N/A   Overcast
2:38 AM 44.6°F 42.8°F 93% 30.35 in 10.0 miles NW 2.3 mph - N/A   Overcast
2:48 AM 44.6°F 42.8°F 93% 30.35 in 10.0 miles NW 3.5 mph - N/A   Overcast
2:58 AM 44.1°F 43.7°F 99% 30.37 in 10.0 miles NW 3.5 mph - N/A   Overcast
3:18 AM 44.6°F 42.8°F 93% 30.35 in 10.0 miles NW 4.6 mph - N/A   Overcast
3:53 AM 44.6°F 42.8°F 93% 30.35 in 10.0 miles NW 6.9 mph - N/A   Overcast
3:58 AM 43.9°F 43.7°F 99% 30.37 in 10.0 miles NW 5.8 mph - N/A   Overcast
4:08 AM 44.6°F 42.8°F 93% 30.35 in 10.0 miles NW 6.9 mph - N/A   Overcast
4:14 AM 44.6°F 42.8°F 93% 30.35 in 10.0 miles NW 4.6 mph - N/A   Overcast
4:44 AM 44.6°F 42.8°F 93% 30.35 in 10.0 miles NW 5.8 mph - N/A   Overcast
4:58 AM 43.7°F 43.5°F 99% 30.37 in 10.0 miles NW 5.8 mph - N/A   Overcast
5:13 AM 44.6°F 42.8°F 93% 30.35 in 10.0 miles NW 6.9 mph - N/A   Overcast
5:18 AM 44.6°F 42.8°F 93% 30.36 in 10.0 miles NW 5.8 mph - N/A   Overcast
5:28 AM 44.6°F 42.8°F 93% 30.36 in 10.0 miles NW 4.6 mph - N/A   Overcast
5:58 AM 43.9°F 43.5°F 99% 30.38 in 10.0 miles NW 4.6 mph - N/A   Overcast
6:13 AM 44.6°F 44.6°F 100% 30.36 in 10.0 miles NW 4.6 mph - N/A   Overcast
6:43 AM 44.6°F 42.8°F 93% 30.36 in 10.0 miles NW 4.6 mph - N/A   Overcast
6:53 AM 44.6°F 44.6°F 100% 30.36 in 10.0 miles NW 5.8 mph - N/A   Overcast
6:58 AM 44.1°F 43.7°F 99% 30.38 in 10.0 miles NW 4.6 mph - N/A   Overcast
7:08 AM 44.6°F 42.8°F 93% 30.36 in 10.0 miles NW 4.6 mph - N/A   Overcast
7:58 AM 44.4°F 43.9°F 98% 30.40 in 10.0 miles NW 4.6 mph - N/A   Overcast
8:48 AM 44.6°F 44.6°F 100% 30.39 in 10.0 miles NW 5.8 mph - N/A   Overcast
8:58 AM 45.1°F 44.6°F 98% 30.41 in 10.0 miles NW 6.9 mph - N/A   Overcast
9:23 AM 46.4°F 44.6°F 93% 30.39 in 10.0 miles NW 5.8 mph - N/A   Overcast
9:28 AM 46.4°F 44.6°F 93% 30.39 in 10.0 miles NW 5.8 mph - N/A   Overcast
9:33 AM 46.4°F 44.6°F 93% 30.39 in 10.0 miles NW 5.8 mph - N/A   Overcast
9:58 AM 46.6°F 45.5°F 96% 30.41 in 10.0 miles NW 6.9 mph - N/A   Overcast
10:08 AM 46.4°F 46.4°F 100% 30.39 in 10.0 miles NW 6.9 mph - N/A   Overcast
10:58 AM 47.7°F 45.5°F 92% 30.42 in 10.0 miles WNW 1.2 mph - N/A   Overcast
11:13 AM 48.2°F 44.6°F 87% 30.40 in 10.0 miles WNW 1.2 mph - N/A   Overcast
11:58 AM 48.2°F 45.5°F 90% 30.42 in 10.0 miles NNW 1.2 mph - N/A   Overcast
12:58 PM 49.3°F 45.3°F 86% 30.41 in 10.0 miles WNW 1.2 mph - N/A   Overcast
1:08 PM 50.0°F 44.6°F 82% 30.38 in 10.0 miles NW 1.2 mph - N/A   Overcast
1:33 PM 50.0°F 44.6°F 82% 30.38 in 10.0 miles Calm Calm - N/A   Overcast
1:38 PM 50.0°F 46.4°F 87% 30.37 in 10.0 miles NNW 1.2 mph - N/A   Overcast
1:48 PM 50.0°F 44.6°F 82% 30.37 in 10.0 miles WNW 1.2 mph - N/A   Overcast
1:53 PM 50.0°F 46.4°F 87% 30.38 in 10.0 miles West 1.2 mph - N/A   Overcast
1:58 PM 49.6°F 45.7°F 86% 30.39 in 10.0 miles West 2.3 mph - N/A   Overcast
2:08 PM 50.0°F 46.4°F 87% 30.38 in 10.0 miles WNW 1.2 mph - N/A   Overcast
2:23 PM 50.0°F 46.4°F 87% 30.37 in 10.0 miles WNW 1.2 mph - N/A   Overcast
2:28 PM 50.0°F 44.6°F 82% 30.37 in 10.0 miles WNW 1.2 mph - N/A   Overcast
2:38 PM 50.0°F 44.6°F 82% 30.37 in 10.0 miles WNW 1.2 mph - N/A   Overcast
2:43 PM 50.0°F 44.6°F 82% 30.36 in 10.0 miles NW 1.2 mph - N/A   Overcast
2:58 PM 50.5°F 45.1°F 82% 30.37 in 10.0 miles Calm Calm - N/A   Overcast
3:58 PM 50.7°F 43.5°F 76% 30.38 in 10.0 miles SW 12.7 mph - N/A   Overcast
4:58 PM 50.0°F 44.2°F 81% 30.38 in 10.0 miles SW 11.5 mph - N/A   Overcast
5:28 PM 48.2°F 44.6°F 87% 30.36 in 9.0 miles SW 6.9 mph - N/A   Overcast
5:42 PM 48.2°F 46.4°F 93% 30.37 in 5.0 miles SW 8.1 mph - N/A   Overcast
5:58 PM 47.8°F 46.8°F 96% 30.39 in 10.0 miles SW 4.6 mph - N/A   Overcast
6:03 PM 48.2°F 46.4°F 93% 30.37 in 10.0 miles SW 5.8 mph - N/A   Overcast
6:28 PM 48.2°F 46.4°F 93% 30.37 in 10.0 miles SW 8.1 mph - N/A   Overcast
6:48 PM 48.2°F 46.4°F 93% 30.36 in 10.0 miles SW 8.1 mph - N/A   Overcast
6:58 PM 47.7°F 46.6°F 96% 30.39 in 10.0 miles SW 8.1 mph - N/A   Overcast
7:23 PM 48.2°F 46.4°F 93% 30.37 in 10.0 miles SW 8.1 mph - N/A   Overcast
7:28 PM 48.2°F 46.4°F 93% 30.36 in 10.0 miles SW 8.1 mph - N/A   Overcast
7:58 PM 47.1°F 46.0°F 96% 30.36 in 10.0 miles SW 8.1 mph - N/A   Overcast
8:58 PM 46.9°F 45.1°F 93% 30.36 in 10.0 miles SW 9.2 mph - N/A   Overcast
9:58 PM 46.8°F 44.6°F 92% 30.36 in 10.0 miles SW 5.8 mph - N/A   Scattered Clouds
10:03 PM 46.4°F 44.6°F 93% 30.34 in 10.0 miles SW 4.6 mph - N/A   Mostly Cloudy
10:48 PM 46.4°F 44.6°F 93% 30.35 in 10.0 miles SW 6.9 mph - N/A   Overcast
10:58 PM 46.8°F 44.8°F 93% 30.37 in 10.0 miles SW 6.9 mph - N/A   Overcast
11:18 PM 46.4°F 44.6°F 93% 30.34 in 10.0 miles SW 6.9 mph 17.3 mph N/A   Mostly Cloudy
11:58 PM 46.4°F 43.9°F 91% 30.36 in 10.0 miles South 11.5 mph 17.3 mph N/A   Mostly Cloudy
Moon Phase
Feb. 12 Feb. 17 Feb. 25 Mar. 04 Mar. 11
Sunrise:07:19 AM (PST) Moon Rise:08:05 AM (PST)2/12
Sunset:05:30 PM (PST) Moon Set:08:53 PM (PST)2/12

Copyright © 2014 The Weather Underground, Inc.